PBO Station Position Time Series. Reference Frame : NAM14
Format Version,1.1.0
4-character ID,SA48
Station name,None
Begin Date, 2006-04-07
End Date, 2015-11-03
Release Date, 2019-08-30
Reference position, 31.9181008951 North Latitude, -111.8609802259 East Longitude, 709.57823 meters elevation,
Date, North (mm), East (mm), Vertical (mm), North Std. Deviation (mm), East Std. Deviation (mm),              Vertical Std. Deviation (mm), Quality,
2006-04-07,0.00, 0.00, 0.00, 1.96, 1.79, 7.80, repro,
2006-04-08,1.04, 0.62, -6.44, 1.94, 1.75, 7.71, repro,
2006-04-09,0.19, 0.43, 1.08, 1.88, 1.71, 7.50, repro,
2006-04-10,-0.55, -0.59, 2.93, 1.86, 1.70, 7.48, repro,
2006-04-11,0.81, 0.44, 6.60, 1.94, 1.72, 7.89, repro,
2006-04-12,1.07, 0.09, -1.65, 1.96, 1.73, 8.00, repro,
2006-04-13,1.24, 1.05, -2.69, 1.89, 1.71, 7.58, repro,
2006-04-14,-0.96, 0.60, 1.57, 1.89, 1.72, 7.60, repro,
2006-04-15,0.44, 0.26, 5.71, 1.93, 1.73, 7.75, repro,
2006-04-16,0.78, 0.67, 3.24, 1.87, 1.69, 7.48, repro,
2006-04-17,0.17, -1.11, 6.44, 1.89, 1.70, 7.61, repro,
2006-04-18,0.71, -0.25, -1.91, 1.91, 1.75, 7.78, repro,
2006-04-19,-0.11, -0.18, -3.07, 1.88, 1.71, 7.57, repro,
2006-04-20,-0.02, -0.40, -3.09, 1.92, 1.76, 7.79, repro,
2006-04-21,-0.14, -0.49, -1.86, 1.87, 1.68, 7.48, repro,
2006-04-22,-2.31, 0.17, 1.64, 1.88, 1.70, 7.55, repro,
2006-04-23,-0.52, -0.11, -1.99, 1.92, 1.76, 7.79, repro,
2006-04-24,0.06, 0.23, -2.84, 1.90, 1.76, 7.79, repro,
2006-04-25,-1.50, 0.34, -5.00, 1.90, 1.77, 7.80, repro,
2006-04-26,0.96, -0.28, -1.69, 1.91, 1.78, 7.80, repro,
2006-04-27,-0.50, 1.22, -4.89, 1.92, 1.72, 7.59, repro,
2006-04-28,0.16, -0.07, -2.74, 1.91, 1.71, 7.57, repro,
2006-04-29,-0.37, 0.13, -2.44, 1.88, 1.71, 7.62, repro,
2006-04-30,-1.36, 0.11, -6.29, 1.93, 1.78, 7.81, repro,
2006-05-01,0.74, 0.19, -2.92, 1.90, 1.72, 7.68, repro,
2006-05-02,0.05, -0.13, 0.86, 1.89, 1.71, 7.62, repro,
2006-05-03,-0.64, 0.61, 4.02, 1.87, 1.70, 7.48, repro,
2006-05-04,0.80, -0.30, 3.45, 1.87, 1.69, 7.55, repro,
2006-05-05,-0.09, -0.49, -7.98, 1.89, 1.71, 7.61, repro,
2006-05-06,0.74, 0.37, -3.08, 1.89, 1.72, 7.60, repro,
2006-05-07,-0.22, -0.70, 0.47, 1.89, 1.71, 7.59, repro,
2006-05-08,0.70, 0.37, -1.49, 1.89, 1.71, 7.56, repro,
2006-05-09,0.42, -0.14, 5.60, 1.93, 1.71, 7.77, repro,
2006-05-10,0.05, 1.49, -1.82, 1.88, 1.70, 7.56, repro,
2006-05-11,-0.95, 0.37, 0.16, 1.90, 1.71, 7.61, repro,
2006-05-12,0.65, -0.34, 3.28, 1.89, 1.70, 7.64, repro,
2006-05-13,-0.29, 0.54, -2.55, 1.95, 1.70, 7.79, repro,
2006-05-14,-0.96, 0.47, -2.57, 1.90, 1.71, 7.62, repro,
2006-05-15,0.13, 0.55, -3.70, 1.88, 1.70, 7.55, repro,
2006-05-16,-1.08, 0.58, -7.46, 1.94, 1.74, 7.80, repro,
2006-05-17,-1.48, -0.64, -0.81, 1.95, 1.73, 7.82, repro,
2006-05-18,-0.77, -0.00, -1.13, 1.90, 1.70, 7.67, repro,
2006-05-19,-1.10, 0.24, -1.17, 1.96, 1.70, 7.90, repro,
2006-05-20,-0.33, -0.06, 0.86, 1.95, 1.71, 7.87, repro,
2006-05-21,0.57, -0.69, -3.80, 1.98, 1.71, 7.95, repro,
2006-05-22,-1.57, -0.67, 3.31, 2.00, 1.78, 8.00, repro,
2006-05-23,0.53, -0.08, -0.62, 1.99, 1.71, 7.94, repro,
2006-05-24,-1.26, -0.16, -2.37, 1.98, 1.71, 7.96, repro,
2006-05-25,0.14, -0.89, -1.22, 2.09, 1.74, 8.35, repro,
2006-05-26,0.68, 1.13, 0.06, 2.03, 1.72, 8.10, repro,
2006-05-27,-0.94, 0.39, 3.56, 2.00, 1.73, 8.04, repro,
2006-05-28,0.00, 1.03, 9.89, 2.01, 1.73, 8.00, repro,
2006-05-29,-0.74, 1.19, 4.53, 1.99, 1.71, 7.94, repro,
2006-05-30,0.08, -0.68, 0.72, 2.01, 1.72, 8.00, repro,
2006-05-31,0.28, -0.57, -6.27, 1.96, 1.70, 7.82, repro,
2006-06-01,-0.07, 0.41, -3.24, 2.03, 1.76, 8.10, repro,
2006-06-02,-0.14, 0.56, -7.53, 2.07, 1.78, 8.24, repro,
2006-06-03,-3.79, -0.39, 6.54, 2.00, 1.74, 7.89, repro,
2006-06-04,-2.65, 0.71, 3.94, 2.02, 1.73, 7.90, repro,
2006-06-05,-0.44, 0.94, 0.36, 2.03, 1.75, 8.00, repro,
2006-06-06,0.09, 0.85, 4.66, 2.02, 1.76, 8.03, repro,
2006-06-07,1.65, 0.54, -1.86, 2.04, 1.77, 8.06, repro,
2006-06-08,-0.55, 1.77, 0.62, 1.99, 1.76, 7.96, repro,
2006-06-09,-0.60, 1.78, -0.21, 1.98, 1.72, 7.84, repro,
2006-06-10,-0.16, 0.18, 2.68, 1.98, 1.70, 7.85, repro,
2006-06-11,-0.40, 1.13, 1.99, 2.01, 1.75, 8.04, repro,
2006-06-12,-2.27, 0.87, 4.28, 2.03, 1.75, 8.07, repro,
2006-06-13,-1.94, 0.49, -3.17, 2.03, 1.76, 8.06, repro,
2006-06-14,-1.06, 1.97, 7.64, 1.95, 1.70, 7.79, repro,
2006-06-15,-0.81, 0.28, 7.97, 1.96, 1.70, 7.81, repro,
2006-06-16,-0.16, 1.06, 4.10, 1.96, 1.72, 7.85, repro,
2006-06-17,-0.80, -0.72, 4.66, 1.96, 1.70, 7.83, repro,
2006-06-18,-1.22, 0.45, 3.60, 2.01, 1.80, 8.12, repro,
2006-06-19,-2.14, 0.32, -2.55, 1.97, 1.73, 7.96, repro,
2006-06-20,-3.01, 0.22, 1.33, 2.97, 2.58, 12.02, repro,
2006-06-21,-3.04, 0.72, 5.16, 2.01, 1.75, 8.08, repro,
2006-06-22,-0.70, 2.78, 4.90, 2.07, 1.85, 8.53, repro,
2006-06-23,-3.08, 0.35, -9.32, 1.99, 1.76, 8.11, repro,
2006-06-24,-1.99, 1.98, 0.35, 2.00, 1.77, 8.20, repro,
2006-06-25,-2.63, -0.21, -1.25, 2.04, 1.80, 8.28, repro,
2006-06-26,-0.30, 1.92, -4.94, 2.08, 1.82, 8.42, repro,
2006-06-27,-1.07, 0.87, 6.30, 2.07, 1.80, 8.37, repro,
2006-06-28,-1.71, 0.61, -3.78, 2.11, 1.90, 8.65, repro,
2006-06-29,-2.11, 0.62, 4.77, 1.97, 1.81, 8.09, repro,
2006-06-30,-2.94, 0.13, -2.79, 2.07, 1.82, 8.45, repro,
2006-07-01,-1.89, 0.27, 7.67, 2.19, 1.94, 9.22, repro,
2006-07-02,-0.41, -0.01, -9.54, 2.10, 1.88, 8.56, repro,
2006-07-03,-1.95, 1.02, 0.65, 2.08, 1.81, 8.71, repro,
2006-07-04,-4.82, 0.45, 4.06, 2.13, 1.81, 8.78, repro,
2006-07-05,-3.96, 1.97, -4.23, 2.12, 1.82, 8.82, repro,
2006-07-07,-0.92, 1.09, -6.47, 2.15, 1.85, 8.84, repro,
2006-07-08,-4.16, -0.37, 10.57, 2.06, 1.78, 8.56, repro,
2006-07-09,-4.77, 1.77, 15.22, 2.11, 1.78, 8.63, repro,
2006-07-10,-3.02, -0.87, -4.55, 2.13, 1.81, 8.78, repro,
2006-07-11,-2.23, 1.83, -0.39, 2.10, 1.78, 8.66, repro,
2006-07-12,-2.45, 0.69, -5.99, 2.06, 1.75, 8.46, repro,
2006-07-13,-3.46, 0.53, -3.54, 2.07, 1.75, 8.46, repro,
2006-07-14,-3.82, 2.96, -6.24, 2.25, 1.91, 9.28, repro,
2006-07-15,-2.03, -1.21, 2.12, 2.11, 1.80, 8.75, repro,
2006-07-16,-4.59, -0.41, 2.42, 2.17, 1.85, 9.07, repro,
2006-07-17,-2.60, 1.37, -1.45, 2.24, 1.94, 9.09, repro,
2006-07-18,-1.70, -1.06, 4.40, 1.99, 1.73, 8.06, repro,
2006-07-19,-1.24, -0.19, 7.91, 1.98, 1.72, 7.97, repro,
2006-07-20,-4.18, -2.70, 14.94, 2.07, 1.81, 8.28, repro,
2006-07-21,-1.92, -0.05, 8.95, 2.02, 1.76, 8.13, repro,
2006-07-22,-3.47, 0.64, -7.48, 2.00, 1.71, 7.93, repro,
2006-07-23,-2.85, -1.47, 3.55, 2.00, 1.72, 7.97, repro,
2006-07-24,-1.96, -1.61, 5.75, 2.00, 1.71, 7.93, repro,
2006-07-25,-3.52, -2.19, 7.72, 1.98, 1.72, 7.83, repro,
2006-07-26,-1.39, -4.01, 3.33, 2.12, 1.90, 8.54, repro,
2006-07-27,-0.04, -3.07, -4.33, 1.98, 1.73, 7.91, repro,
2006-07-28,-0.31, -2.77, -6.41, 2.04, 1.80, 8.17, repro,
2006-07-29,-1.07, -1.57, 2.23, 1.98, 1.71, 7.88, repro,
2006-07-30,-3.02, -2.05, -0.58, 1.99, 1.73, 7.93, repro,
2006-07-31,-3.35, -1.59, 5.98, 1.99, 1.73, 7.90, repro,
2006-08-01,-1.65, -2.00, -0.05, 1.99, 1.73, 7.99, repro,
2006-08-02,-2.42, -0.10, -3.70, 2.03, 1.77, 8.27, repro,
2006-08-03,-1.11, -2.03, -2.84, 2.00, 1.76, 8.12, repro,
2006-08-04,-0.10, -2.59, 4.13, 2.01, 1.78, 8.23, repro,
2006-08-05,-0.26, -1.80, -1.87, 2.00, 1.82, 8.06, repro,
2006-08-06,-1.15, -0.65, -4.65, 1.93, 1.75, 7.80, repro,
2006-08-07,-3.02, -1.67, -5.38, 1.95, 1.76, 7.90, repro,
2006-08-08,-1.28, -2.52, -8.50, 2.10, 1.90, 8.30, repro,
2006-08-09,-2.13, -1.16, 5.83, 1.97, 1.74, 7.84, repro,
2006-08-10,-2.30, 0.64, -5.73, 1.92, 1.74, 7.71, repro,
2006-08-11,-1.19, -1.80, -0.53, 1.92, 1.72, 7.58, repro,
2006-08-12,-1.51, -1.86, -3.13, 1.92, 1.74, 7.71, repro,
2006-08-13,-0.77, 0.80, 0.32, 1.98, 1.78, 7.96, repro,
2006-08-14,0.34, 2.15, 0.94, 1.98, 1.74, 8.02, repro,
2006-08-15,-3.47, -1.20, 0.43, 2.03, 1.77, 7.97, repro,
2006-08-16,-2.79, -1.20, -9.92, 1.94, 1.73, 7.73, repro,
2006-08-17,-1.32, -0.25, 1.34, 1.94, 1.73, 7.73, repro,
2006-08-18,-2.39, -2.37, -1.60, 1.98, 1.82, 7.88, repro,
2006-08-19,-0.48, -0.40, -9.63, 1.90, 1.71, 7.60, repro,
2006-08-20,-1.95, -1.77, -3.96, 1.93, 1.72, 7.68, repro,
2006-08-21,0.66, -3.95, -6.14, 1.94, 1.74, 7.76, repro,
2006-08-22,-0.33, 0.37, 0.43, 1.93, 1.74, 7.72, repro,
2006-08-23,-0.28, -2.40, 1.66, 1.94, 1.73, 7.78, repro,
2006-08-24,-0.21, -1.01, -1.83, 2.00, 1.80, 8.15, repro,
2006-08-25,-0.34, 0.73, 6.96, 1.98, 1.81, 8.13, repro,
2006-08-26,-1.68, -0.90, 5.80, 1.96, 1.77, 7.99, repro,
2006-08-27,-2.32, 0.07, 4.75, 2.00, 1.82, 8.15, repro,
2006-08-28,-0.18, -1.65, 0.37, 1.98, 1.82, 8.14, repro,
2006-08-29,-0.85, -0.43, 1.47, 2.25, 2.05, 9.73, repro,
2006-08-30,-3.65, 1.27, 1.03, 2.10, 1.89, 8.73, repro,
2006-08-31,-2.42, -0.04, 2.96, 1.98, 1.82, 8.15, repro,
2006-09-01,-1.57, -2.54, 10.93, 2.02, 1.85, 8.23, repro,
2006-09-02,-1.51, -0.75, -10.43, 1.99, 1.86, 8.25, repro,
2006-09-03,1.39, 0.79, -15.44, 2.04, 1.88, 8.47, repro,
2006-09-04,0.94, 0.04, -13.29, 2.06, 1.94, 8.56, repro,
2006-09-05,-1.90, 0.78, 7.82, 2.05, 1.91, 8.49, repro,
2006-09-06,-1.44, 1.27, 0.33, 1.95, 1.81, 8.08, repro,
2006-09-07,0.50, 2.27, -12.83, 2.07, 1.99, 8.90, repro,
2006-09-08,0.27, -1.75, -6.57, 2.05, 1.99, 8.69, repro,
2006-09-09,0.03, -1.42, -5.54, 2.03, 1.87, 8.25, repro,
2006-09-10,-0.71, 1.38, 6.20, 1.97, 1.83, 8.03, repro,
2006-09-11,-3.59, -1.09, 7.37, 2.05, 1.85, 8.34, repro,
2006-09-12,2.06, 0.07, -11.26, 2.08, 1.92, 8.53, repro,
2006-09-13,-1.45, 2.46, -7.07, 2.03, 1.82, 8.21, repro,
2006-09-14,-0.18, 1.58, -12.46, 2.02, 1.81, 8.18, repro,
2006-09-15,-1.67, 3.69, -5.05, 2.00, 1.77, 8.07, repro,
2006-09-16,-0.69, 0.19, -0.49, 1.99, 1.74, 7.96, repro,
2006-09-17,-0.51, 0.69, -0.71, 1.98, 1.74, 7.99, repro,
2006-09-18,0.96, 1.40, 2.96, 1.91, 1.73, 7.68, repro,
2006-09-19,1.20, 2.09, -3.80, 1.94, 1.74, 7.74, repro,
2006-09-20,-0.34, 2.07, -9.69, 1.96, 1.75, 7.83, repro,
2006-09-21,0.31, 0.39, 8.58, 2.06, 1.86, 8.28, repro,
2006-09-22,-2.44, 0.54, 1.81, 2.07, 1.84, 8.45, repro,
2006-09-23,0.67, 1.63, -1.78, 2.00, 1.81, 7.90, repro,
2006-09-24,-0.42, 3.16, -11.22, 2.02, 1.77, 7.94, repro,
2006-09-25,-0.78, 3.46, -7.68, 1.99, 1.77, 7.93, repro,
2006-09-26,0.26, 2.23, -4.63, 2.00, 1.83, 8.04, repro,
2006-09-27,-0.90, 5.95, -16.21, 2.04, 1.79, 8.04, repro,
2006-09-28,-0.87, 0.93, -1.60, 2.00, 1.77, 7.86, repro,
2006-09-29,-0.11, 1.77, 0.84, 1.99, 1.82, 7.95, repro,
2006-09-30,0.14, 1.79, -1.42, 1.99, 1.79, 7.84, repro,
2006-10-01,0.52, 3.83, -4.95, 1.95, 1.75, 7.75, repro,
2006-10-02,0.03, 1.97, -11.14, 1.99, 1.82, 7.95, repro,
2006-10-03,-3.04, 1.70, -7.56, 2.01, 1.82, 7.95, repro,
2006-10-04,-0.25, 3.31, 2.54, 2.00, 1.83, 7.95, repro,
2006-10-05,-0.77, 2.10, -6.97, 1.98, 1.80, 7.95, repro,
2006-10-06,-1.05, 3.32, -3.57, 2.03, 1.82, 8.37, repro,
2006-10-07,0.79, 2.22, -11.48, 2.08, 1.90, 8.69, repro,
2006-10-08,0.02, 1.81, -14.89, 2.01, 1.86, 8.25, repro,
2006-10-09,-1.90, 1.84, -5.77, 2.00, 1.83, 8.16, repro,
2006-10-10,0.21, 3.81, -6.38, 2.00, 1.83, 8.18, repro,
2006-10-11,1.50, 0.78, -10.28, 2.00, 1.83, 8.13, repro,
2006-10-12,1.33, 2.70, -5.08, 1.99, 1.82, 8.09, repro,
2006-10-13,-1.16, 4.01, -3.91, 1.94, 1.80, 7.93, repro,
2006-10-14,-4.44, 1.96, -4.28, 1.97, 1.87, 8.17, repro,
2006-10-15,-0.85, 2.55, 5.77, 1.96, 1.84, 8.02, repro,
2006-10-16,0.66, 3.49, 7.46, 1.95, 1.78, 7.87, repro,
2006-10-17,1.23, 1.80, -3.78, 1.97, 1.83, 7.95, repro,
2006-10-18,0.63, 1.89, -5.43, 1.93, 1.78, 7.81, repro,
2006-10-19,-0.70, 3.75, -2.66, 1.97, 1.84, 7.94, repro,
2006-10-20,0.17, 2.00, 2.62, 2.06, 2.02, 8.68, repro,
2006-10-21,0.56, 2.86, -2.06, 1.96, 1.85, 7.83, repro,
2006-10-22,-0.75, 2.98, -9.42, 1.93, 1.83, 7.79, repro,
2006-10-23,1.37, 2.53, -2.95, 1.92, 1.82, 7.84, repro,
2006-10-24,-0.18, 1.53, -3.02, 1.98, 1.90, 8.12, repro,
2006-10-25,1.06, 4.95, -9.79, 2.01, 1.90, 8.07, repro,
2006-10-26,-0.40, 3.71, -8.59, 1.98, 1.83, 7.80, repro,
2006-10-27,0.19, 4.32, -10.95, 1.93, 1.84, 7.92, repro,
2006-10-28,-0.10, 4.18, -6.94, 1.92, 1.85, 7.87, repro,
2006-10-29,0.78, 3.63, -10.56, 1.95, 1.81, 7.82, repro,
2006-10-30,-0.83, 3.37, -2.35, 1.90, 1.76, 7.66, repro,
2006-10-31,2.02, -5.79, -4.41, 10.85, 21.31, 27.96, repro,
2006-11-01,-0.69, 2.94, -9.31, 1.90, 1.79, 7.65, repro,
2006-11-02,1.13, 5.64, -10.11, 1.89, 1.79, 7.65, repro,
2006-11-03,-1.14, 4.41, -5.79, 1.91, 1.82, 7.84, repro,
2006-11-04,-0.90, 4.57, -2.75, 1.97, 1.86, 8.08, repro,
2006-11-05,-0.28, 4.25, -7.81, 1.93, 1.81, 7.80, repro,
2006-11-06,0.96, 3.46, -5.68, 1.88, 1.73, 7.48, repro,
2006-11-07,0.56, 4.24, -10.49, 1.97, 1.83, 7.92, repro,
2006-11-08,0.46, 4.05, -2.79, 1.93, 1.82, 7.89, repro,
2006-11-09,-0.92, 5.59, -3.56, 1.97, 1.84, 8.05, repro,
2006-11-10,-0.98, 4.23, -11.28, 1.94, 1.77, 7.81, repro,
2006-11-11,-1.14, 4.52, -11.62, 1.94, 1.79, 7.80, repro,
2006-11-12,-0.40, 3.23, -11.00, 1.94, 1.83, 8.01, repro,
2006-11-13,1.69, 4.29, -7.36, 1.98, 1.86, 8.02, repro,
2006-11-14,0.63, 5.25, -0.98, 1.87, 1.72, 7.64, repro,
2006-11-15,0.79, 5.58, -10.12, 1.88, 1.74, 7.65, repro,
2006-11-16,0.92, 4.02, -5.95, 1.87, 1.72, 7.52, repro,
2006-11-17,0.36, 3.72, -6.31, 1.87, 1.71, 7.43, repro,
2006-11-18,-0.16, 3.69, -12.87, 1.94, 1.86, 7.73, repro,
2006-11-19,0.33, 4.81, -14.42, 1.86, 1.71, 7.51, repro,
2006-11-20,0.66, 5.90, -16.67, 1.90, 1.79, 7.68, repro,
2006-11-21,0.62, 5.32, -13.16, 1.88, 1.72, 7.58, repro,
2006-11-22,0.56, 4.97, -14.62, 1.86, 1.72, 7.46, repro,
2006-11-23,1.37, 4.99, -17.00, 1.89, 1.76, 7.70, repro,
2006-11-24,0.97, 4.25, -15.04, 2.02, 1.86, 8.12, repro,
2006-11-25,0.97, 4.36, -11.40, 1.85, 1.71, 7.49, repro,
2006-11-26,0.62, 5.23, -14.09, 1.91, 1.74, 7.73, repro,
2006-11-27,-0.43, 2.81, -13.61, 1.92, 1.75, 7.74, repro,
2006-11-28,-0.08, 3.09, -7.04, 1.86, 1.72, 7.51, repro,
2006-11-29,0.25, 4.26, -12.51, 1.89, 1.73, 7.64, repro,
2006-11-30,1.10, 4.27, -21.66, 1.86, 1.72, 7.52, repro,
2006-12-01,-0.33, 4.65, -19.41, 1.87, 1.74, 7.60, repro,
2006-12-02,-0.38, 4.42, -16.17, 1.87, 1.72, 7.54, repro,
2006-12-03,0.12, 4.10, -21.77, 1.92, 1.76, 7.60, repro,
2006-12-04,0.91, 4.41, -16.62, 1.92, 1.72, 7.74, repro,
2006-12-05,0.44, 5.36, -16.32, 1.93, 1.78, 7.70, repro,
2006-12-06,2.68, 4.44, -16.31, 1.97, 1.86, 8.03, repro,
2006-12-07,0.09, 3.67, -13.55, 1.89, 1.75, 7.68, repro,
2006-12-08,0.78, 4.14, -20.65, 1.91, 1.79, 7.65, repro,
2006-12-09,0.13, 4.26, -4.56, 1.91, 1.76, 7.73, repro,
2006-12-10,-0.51, 4.23, -8.63, 1.93, 1.80, 7.90, repro,
2006-12-11,2.25, 3.64, -20.19, 1.93, 1.78, 7.72, repro,
2006-12-12,-1.78, 5.03, -14.80, 1.89, 1.76, 7.68, repro,
2006-12-13,1.52, 3.86, -8.08, 1.90, 1.74, 7.66, repro,
2006-12-14,-0.27, 3.60, 0.06, 1.85, 1.73, 7.49, repro,
2006-12-15,-0.72, 3.82, -11.25, 1.96, 1.79, 7.68, repro,
2006-12-16,-0.75, 4.73, -4.40, 1.90, 1.76, 7.76, repro,
2006-12-17,-0.54, 3.02, -11.82, 1.99, 1.82, 8.10, repro,
2006-12-18,1.40, 3.57, -6.68, 1.96, 1.81, 7.96, repro,
2006-12-19,0.97, 3.24, -13.09, 1.98, 1.88, 8.07, repro,
2006-12-20,1.99, 4.62, -7.53, 1.91, 1.77, 7.72, repro,
2006-12-21,2.27, 4.30, -14.93, 1.85, 1.78, 7.60, repro,
2006-12-22,1.21, 4.31, -8.29, 1.98, 1.82, 8.10, repro,
2006-12-23,2.34, 4.95, -8.18, 1.86, 1.79, 7.62, repro,
2006-12-24,1.32, 4.21, -6.94, 1.86, 1.73, 7.59, repro,
2006-12-25,0.61, 2.21, -14.87, 1.87, 1.73, 7.62, repro,
2006-12-26,0.68, 4.65, -10.16, 1.90, 1.79, 7.80, repro,
2006-12-27,-0.30, 4.18, -6.98, 1.92, 1.83, 7.96, repro,
2006-12-28,2.23, 5.23, -11.28, 2.00, 1.87, 8.30, repro,
2006-12-29,1.58, 3.92, -10.88, 1.88, 1.77, 7.77, repro,
2006-12-30,0.85, 5.20, -6.82, 1.91, 1.83, 7.93, repro,
2006-12-31,1.08, 5.92, -13.84, 2.00, 1.87, 8.26, repro,
2007-01-01,0.54, 4.48, -14.43, 1.94, 1.85, 8.11, repro,
2007-01-02,-0.71, 6.95, -4.95, 1.94, 1.84, 8.00, repro,
2007-01-03,0.41, 4.30, -1.95, 1.88, 1.81, 7.76, repro,
2007-01-04,1.81, 5.84, -3.71, 1.84, 1.76, 7.62, repro,
2007-01-05,2.03, 4.82, -7.26, 1.84, 1.77, 7.63, repro,
2007-01-06,1.92, 4.92, -13.53, 1.90, 1.83, 7.81, repro,
2007-01-07,2.97, 6.00, -19.91, 1.90, 1.76, 7.68, repro,
2007-01-08,2.17, 3.79, -17.41, 1.87, 1.76, 7.63, repro,
2007-01-09,1.52, 4.23, -11.67, 1.87, 1.71, 7.41, repro,
2007-01-10,1.28, 5.43, -7.47, 1.95, 1.86, 7.75, repro,
2007-01-11,1.40, 3.86, -5.54, 1.96, 1.79, 7.84, repro,
2007-01-12,0.80, 4.92, -13.32, 1.89, 1.73, 7.69, repro,
2007-01-13,1.09, 4.71, -16.60, 1.88, 1.73, 7.47, repro,
2007-01-14,1.98, 3.87, -17.25, 1.82, 1.70, 7.35, repro,
2007-01-15,1.86, 4.14, -19.91, 1.83, 1.69, 7.35, repro,
2007-01-16,1.68, 3.99, -13.57, 1.88, 1.72, 7.56, repro,
2007-01-17,2.50, 4.15, -17.73, 1.86, 1.74, 7.45, repro,
2007-01-18,1.78, 3.73, -25.89, 1.87, 1.76, 7.61, repro,
2007-01-19,0.11, 3.38, -13.81, 1.90, 1.74, 7.69, repro,
2007-01-20,1.50, 3.06, -10.09, 1.89, 1.74, 7.64, repro,
2007-01-21,1.41, 3.63, -6.99, 1.84, 1.69, 7.31, repro,
2007-01-22,1.13, 2.65, -13.59, 1.82, 1.68, 7.29, repro,
2007-01-23,1.75, 2.18, -17.43, 1.82, 1.70, 7.31, repro,
2007-01-24,2.12, 3.49, -15.96, 1.83, 1.69, 7.29, repro,
2007-01-25,1.28, 2.64, -23.03, 1.94, 1.82, 7.68, repro,
2007-01-26,1.89, 4.52, -12.27, 1.84, 1.70, 7.34, repro,
2007-01-27,1.57, 2.18, -8.53, 1.85, 1.70, 7.32, repro,
2007-01-28,0.65, 2.99, -10.07, 1.81, 1.69, 7.25, repro,
2007-01-29,0.68, 3.11, -15.17, 1.82, 1.69, 7.24, repro,
2007-01-30,0.47, 3.00, -14.15, 1.84, 1.70, 7.30, repro,
2007-01-31,2.22, 3.09, -4.21, 1.84, 1.69, 7.30, repro,
2007-02-01,1.04, 3.93, -8.36, 1.85, 1.75, 7.51, repro,
2007-02-02,0.38, 3.61, -12.16, 1.86, 1.71, 7.52, repro,
2007-02-03,1.10, 1.73, -13.13, 1.87, 1.70, 7.50, repro,
2007-02-04,0.85, 3.90, -18.52, 1.83, 1.68, 7.27, repro,
2007-02-05,1.66, 3.01, -14.17, 1.84, 1.70, 7.33, repro,
2007-02-06,-0.02, 2.94, -12.07, 1.86, 1.68, 7.28, repro,
2007-02-07,0.95, 3.94, -16.45, 1.84, 1.68, 7.28, repro,
2007-02-08,-0.14, 2.71, -15.58, 1.88, 1.75, 7.40, repro,
2007-02-09,-0.63, 3.01, -11.86, 1.87, 1.75, 7.35, repro,
2007-02-10,-0.32, 5.04, -9.72, 1.86, 1.72, 7.40, repro,
2007-02-11,-0.26, 3.70, -2.26, 1.83, 1.69, 7.29, repro,
2007-02-12,-0.95, 1.96, -9.20, 1.84, 1.68, 7.31, repro,
2007-02-13,-0.12, 3.35, -9.16, 1.83, 1.69, 7.37, repro,
2007-02-14,0.01, 3.19, -14.97, 1.84, 1.68, 7.29, repro,
2007-02-15,1.92, 4.90, -10.72, 1.84, 1.69, 7.28, repro,
2007-02-16,1.29, 3.54, -9.54, 1.83, 1.67, 7.25, repro,
2007-02-17,0.16, 2.99, -8.54, 1.88, 1.72, 7.38, repro,
2007-02-18,-0.03, 2.19, -10.94, 1.86, 1.70, 7.48, repro,
2007-02-19,-1.37, 2.19, -1.13, 1.85, 1.73, 7.54, repro,
2007-02-20,0.63, 2.75, -4.92, 1.85, 1.68, 7.38, repro,
2007-02-21,0.37, 2.64, -1.70, 1.82, 1.67, 7.27, repro,
2007-02-22,-0.38, 3.29, -5.01, 1.85, 1.66, 7.30, repro,
2007-02-23,-1.22, 1.86, -3.69, 1.90, 1.71, 7.61, repro,
2007-02-24,1.31, 2.01, -4.49, 1.84, 1.67, 7.33, repro,
2007-02-25,0.78, 2.62, -7.22, 1.86, 1.70, 7.48, repro,
2007-02-26,0.76, 1.54, -8.16, 1.82, 1.66, 7.24, repro,
2007-02-27,-1.07, 2.19, 3.22, 1.83, 1.66, 7.25, repro,
2007-02-28,-1.27, 1.82, 2.60, 1.87, 1.66, 7.37, repro,
2007-03-01,0.10, 1.93, 1.06, 1.88, 1.77, 7.62, repro,
2007-03-02,0.94, 2.12, -2.31, 1.90, 1.77, 7.69, repro,
2007-03-03,2.09, 1.92, -10.39, 1.85, 1.70, 7.44, repro,
2007-03-04,1.02, 2.63, -12.25, 1.85, 1.69, 7.40, repro,
2007-03-05,0.32, 2.48, -4.78, 1.86, 1.70, 7.45, repro,
2007-03-06,-1.11, 3.34, -4.92, 1.87, 1.71, 7.50, repro,
2007-03-07,1.25, 2.43, 1.28, 1.85, 1.71, 7.47, repro,
2007-03-08,0.51, 2.75, -6.97, 1.87, 1.70, 7.48, repro,
2007-03-09,1.07, 2.02, -5.96, 1.86, 1.70, 7.46, repro,
2007-03-10,0.05, 2.50, 0.94, 1.94, 1.75, 7.66, repro,
2007-03-11,-1.08, 1.81, -1.63, 1.86, 1.70, 7.46, repro,
2007-03-12,0.54, 1.69, -3.97, 1.88, 1.75, 7.65, repro,
2007-03-13,0.70, 1.98, -6.33, 1.85, 1.68, 7.34, repro,
2007-03-14,1.05, 1.45, -6.44, 1.87, 1.67, 7.33, repro,
2007-03-15,-0.52, 1.98, -6.26, 1.88, 1.71, 7.45, repro,
2007-03-16,0.09, 0.67, -4.25, 1.92, 1.73, 7.55, repro,
2007-03-17,0.41, 0.90, -3.27, 1.84, 1.66, 7.28, repro,
2007-03-18,-0.25, 0.79, -1.79, 1.82, 1.67, 7.30, repro,
2007-03-19,0.59, 0.15, -1.78, 1.84, 1.69, 7.37, repro,
2007-03-20,-0.04, 0.70, -4.99, 1.92, 1.71, 7.64, repro,
2007-03-21,-1.22, -1.45, 6.38, 1.93, 1.74, 7.77, repro,
2007-03-22,-0.59, 0.85, 0.14, 1.88, 1.69, 7.47, repro,
2007-03-23,1.41, 1.69, -4.42, 1.88, 1.71, 7.54, repro,
2007-03-24,0.87, 0.13, -5.80, 1.88, 1.72, 7.56, repro,
2007-03-25,0.72, 1.35, -3.16, 1.96, 1.81, 7.88, repro,
2007-03-26,0.47, -1.85, -4.11, 1.90, 1.72, 7.48, repro,
2007-03-27,-0.56, 0.67, 0.65, 1.91, 1.65, 7.59, repro,
2007-03-28,1.16, 1.02, 1.48, 1.90, 1.67, 7.60, repro,
2007-03-29,0.71, -0.52, -2.16, 1.87, 1.70, 7.55, repro,
2007-03-30,1.74, 1.15, -13.62, 1.96, 1.80, 7.89, repro,
2007-04-05,-0.43, 0.13, -0.78, 2.40, 2.23, 9.94, repro,
2007-04-06,-0.98, -1.57, -8.43, 1.93, 1.73, 7.83, repro,
2007-04-07,0.58, 0.58, -9.26, 1.89, 1.70, 7.58, repro,
2007-04-08,-1.00, -1.38, -5.46, 1.88, 1.66, 7.47, repro,
2007-04-09,0.24, -0.45, -1.98, 1.89, 1.69, 7.60, repro,
2007-04-10,1.13, -1.42, -1.18, 1.90, 1.72, 7.57, repro,
2007-04-11,1.69, -2.00, -1.84, 1.90, 1.69, 7.50, repro,
2007-04-12,-0.13, -0.46, 2.00, 1.87, 1.66, 7.44, repro,
2007-04-13,1.47, -0.68, -5.61, 1.87, 1.66, 7.46, repro,
2007-04-14,1.96, -0.55, -2.14, 1.92, 1.71, 7.55, repro,
2007-04-15,0.03, -0.45, 2.33, 1.93, 1.70, 7.74, repro,
2007-04-16,0.46, 0.39, -3.18, 1.86, 1.65, 7.37, repro,
2007-04-17,0.23, -0.50, -5.63, 1.85, 1.65, 7.39, repro,
2007-04-18,0.14, -0.65, -4.19, 1.95, 1.78, 7.84, repro,
2007-04-19,1.18, -0.93, -2.95, 1.87, 1.66, 7.49, repro,
2007-04-20,0.69, 0.19, -7.22, 1.92, 1.70, 7.73, repro,
2007-04-21,0.79, -0.52, 1.93, 1.85, 1.64, 7.36, repro,
2007-04-22,0.94, -0.79, 0.97, 1.85, 1.64, 7.40, repro,
2007-04-23,2.85, 0.26, -1.69, 1.89, 1.70, 7.53, repro,
2007-04-24,0.80, -0.78, -7.81, 1.90, 1.70, 7.55, repro,
2007-04-25,0.28, 0.94, -4.45, 1.90, 1.71, 7.58, repro,
2007-04-26,0.39, -0.55, -2.53, 1.87, 1.66, 7.44, repro,
2007-04-27,0.39, -0.59, -3.55, 1.85, 1.64, 7.33, repro,
2007-04-28,-0.55, -0.56, -12.33, 1.91, 1.70, 7.54, repro,
2007-04-29,-0.05, -1.40, -13.38, 1.93, 1.72, 7.72, repro,
2007-04-30,-0.14, -0.31, -11.61, 1.87, 1.65, 7.43, repro,
2007-05-01,0.56, -0.25, -5.43, 1.88, 1.65, 7.49, repro,
2007-05-03,-0.16, -0.80, -2.21, 2.11, 1.80, 8.50, repro,
2007-05-04,0.19, -0.68, -11.93, 2.53, 2.12, 10.00, repro,
2007-05-05,0.66, -0.99, -10.77, 1.91, 1.69, 7.56, repro,
2007-05-06,1.21, -0.54, -7.26, 1.87, 1.65, 7.45, repro,
2007-05-07,-0.46, -0.52, -6.23, 1.86, 1.64, 7.39, repro,
2007-05-08,-0.95, 0.09, -3.23, 1.87, 1.65, 7.43, repro,
2007-05-09,0.10, -1.92, -7.05, 1.90, 1.65, 7.49, repro,
2007-05-10,0.48, -1.57, -13.34, 1.98, 1.69, 7.71, repro,
2007-05-11,-0.04, -1.25, -13.13, 1.99, 1.71, 7.83, repro,
2007-05-12,-1.04, -0.38, -4.76, 1.88, 1.64, 7.44, repro,
2007-05-13,-0.79, -1.01, -6.09, 1.92, 1.68, 7.64, repro,
2007-05-14,-1.20, -1.22, -6.42, 1.92, 1.68, 7.59, repro,
2007-05-15,-1.31, -1.05, -2.91, 1.91, 1.65, 7.50, repro,
2007-05-16,1.41, -0.11, -4.87, 1.89, 1.65, 7.48, repro,
2007-05-17,-0.23, 0.90, -0.01, 1.92, 1.71, 7.59, repro,
2007-05-18,-1.04, 0.39, -7.40, 1.98, 1.78, 7.85, repro,
2007-05-19,-0.28, -0.18, -8.69, 1.90, 1.66, 7.49, repro,
2007-05-20,-1.87, -0.61, 2.33, 1.95, 1.72, 7.70, repro,
2007-05-21,-1.48, -0.96, -4.71, 1.91, 1.71, 7.59, repro,
2007-05-22,-0.18, -1.61, -1.58, 1.89, 1.67, 7.50, repro,
2007-05-23,0.40, -1.84, -1.51, 1.92, 1.69, 7.51, repro,
2007-05-24,-0.83, -1.95, -8.47, 1.96, 1.73, 7.74, repro,
2007-05-25,0.07, -2.22, -7.28, 1.89, 1.64, 7.38, repro,
2007-05-26,-0.58, -1.76, -10.84, 1.87, 1.65, 7.37, repro,
2007-05-27,-1.06, -0.79, -3.99, 1.87, 1.66, 7.45, repro,
2007-05-28,-1.42, -1.07, -4.07, 1.90, 1.67, 7.48, repro,
2007-05-29,-1.60, -1.32, -4.78, 1.90, 1.66, 7.44, repro,
2007-05-30,-0.42, -1.96, -9.93, 1.92, 1.67, 7.51, repro,
2007-05-31,0.15, -2.15, -3.38, 1.91, 1.68, 7.59, repro,
2007-06-01,-1.61, -2.24, -2.04, 1.88, 1.65, 7.39, repro,
2007-06-02,-2.08, -1.37, -4.91, 1.85, 1.66, 7.35, repro,
2007-06-03,-1.50, -0.75, -4.72, 1.88, 1.66, 7.42, repro,
2007-06-04,-1.08, -0.84, -6.23, 1.87, 1.65, 7.37, repro,
2007-06-05,-0.30, -1.39, -4.40, 1.92, 1.68, 7.58, repro,
2007-06-06,-1.95, -1.28, 3.90, 1.87, 1.67, 7.49, repro,
2007-06-07,-0.89, -2.57, 1.27, 1.89, 1.67, 7.52, repro,
2007-06-08,-0.38, -1.21, -9.26, 1.87, 1.66, 7.43, repro,